This demonstration page uses our WeatherBlox Daily Observations layout. Learn more.

40.92945, -100.16068

Hourly Observations for February 18, 2019

Temp ( °F °C ) Dew Point ( °F °C ) Humidity (%) Winds ( mph kmh ) Pressure ( in mb ) Visibility ( mi km ) Precip ( " mm )
12:15 am 00:15 Clear 3 -16 -3 -19.5 75 75 WNW 13 20 30.54 1034 10 16.0934 0 0
12:35 am 00:35 Clear 1 -17.1 -5 -20.4 76 76 WNW 12 19 30.56 1035 10 16.0934 0 0
12:55 am 00:55 Clear 0 -18 -6 -21.1 77 77 WNW 13 20 30.58 1036 10 16.0934 0 0
1:15 am 01:15 Clear 1 -17.1 -5 -20.3 76 76 WNW 13 20 30.57 1035 10 16.0934 0 0
1:35 am 01:35 Clear 1 -17.4 -5 -20.5 77 77 WNW 12 19 30.57 1035 10 16.0934 0 0
1:55 am 01:55 Clear 0 -17.6 -5 -20.7 77 77 NW 13 20 30.58 1035 10 16.0934 0 0
2:15 am 02:15 Clear 0 -17.7 -6 -20.9 76 76 WNW 10 17 30.59 1036 10 16.0934 0 0
2:35 am 02:35 Clear -1 -18.6 -7 -21.6 77 77 NW 9 15 30.59 1036 10 16.0934 0 0
2:55 am 02:55 Clear -2 -18.7 -7 -21.8 77 77 WNW 10 17 30.6 1036 10 16.0934 0 0
3:15 am 03:15 Clear -3 -19.6 -9 -22.5 78 78 NW 12 19 30.6 1036 10 16.0934 0 0
3:35 am 03:35 Clear -5 -20.4 -10 -23.3 78 78 WNW 7 11 30.61 1037 10 16.0934 0 0
3:55 am 03:55 Clear -5 -20.4 -10 -23.3 78 78 W 13 20 30.62 1037 10 16.0934 0 0
4:15 am 04:15 Clear -2 -18.8 -7 -21.6 79 79 W 12 19 30.61 1037 10 16.0934 0 0
4:35 am 04:35 Clear -1 -18.2 -6 -21.3 77 77 W 10 17 30.62 1037 10 16.0934 0 0
4:55 am 04:55 Clear -1 -18.2 -6 -21.2 77 77 WNW 12 19 30.63 1037 10 16.0934 0 0
5:15 am 05:15 Clear 0 -18 -6 -21.2 76 76 WNW 10 17 30.63 1037 10 16.0934 0 0
5:35 am 05:35 Clear -1 -18.2 -6 -21.2 77 77 NW 12 19 30.63 1037 10 16.0934 0 0
5:55 am 05:55 Clear -1 -18.1 -6 -21.2 77 77 NW 12 19 30.63 1037 10 16.0934 0 0
6:15 am 06:15 Clear -1 -18.5 -7 -21.5 77 77 NW 10 17 30.64 1038 10 16.0934 0 0
6:35 am 06:35 Clear -2 -18.7 -7 -21.9 76 76 WNW 12 19 30.65 1038 10 16.0934 0 0
6:55 am 06:55 Clear -2 -19 -8 -22.1 77 77 WNW 12 19 30.66 1038 10 16.0934 0 0
7:15 am 07:15 Clear -3 -19.5 -9 -22.5 77 77 WNW 12 19 30.67 1039 10 16.0934 0 0
7:35 am 07:35 Sunny -3 -19.4 -9 -22.5 77 77 WNW 12 19 30.67 1039 10 16.0934 0 0
7:55 am 07:55 Sunny -2 -19 -8 -22.1 77 77 W 10 17 30.69 1039 10 16.0934 0 0
8:15 am 08:15 Sunny 0 -18 -6 -21.2 76 76 W 13 20 30.7 1040 10 16.0934 0 0
8:35 am 08:35 Sunny 1 -17.5 -6 -20.9 75 75 WNW 9 15 30.71 1040 10 16.0934 0 0
8:55 am 08:55 Sunny 2 -16.6 -5 -20.3 73 73 WNW 10 17 30.71 1040 10 16.0934 0 0
9:15 am 09:15 Mostly Cloudy 3 -15.9 -4 -19.8 72 72 NW 14 22 30.7 1040 10 16.0934 0 0
9:35 am 09:35 Partly Cloudy 4 -15.6 -3 -19.6 72 72 NW 14 22 30.71 1040 10 16.0934 0 0
9:55 am 09:55 Sunny 5 -15 -2 -19 72 72 NW 13 20 30.7 1040 10 16.0934 0 0
10:15 am 10:15 Partly Cloudy 5 -15 -2 -19 72 72 NW 10 17 30.7 1040 10 16.0934 0 0
10:35 am 10:35 Cloudy 6 -14.4 -1 -18.3 73 73 NW 9 15 30.69 1039 10 16.0934 0 0
10:55 am 10:55 Mostly Cloudy 7 -13.7 0 -17.8 71 71 NW 9 15 30.68 1039 10 16.0934 0 0
11:15 am 11:15 Cloudy 9 -13 1 -17.1 72 72 NNW 9 15 30.68 1039 10 16.0934 0 0
11:35 am 11:35 Cloudy 10 -12 2 -16.4 70 70 NNW 8 13 30.67 1038 10 16.0934 0 0
11:55 am 11:55 Cloudy 11 -11.4 3 -16 69 69 N 7 11 30.66 1038 10 16.0934 0 0
12:15 pm 12:15 Cloudy 12 -11.3 3 -16.1 68 68 N 7 11 30.66 1038 10 16.0934 0 0
12:35 pm 12:35 Mostly Cloudy 12 -11 4 -15.6 69 69 N 5 7 30.64 1038 10 16.0934 0 0
12:55 pm 12:55 Cloudy 12 -10.9 4 -15.5 69 69 NW 6 9 30.64 1038 10 16.0934 0 0
1:15 pm 13:15 Mostly Cloudy 13 -10.7 5 -15.2 70 70 NNW 7 11 30.63 1037 10 16.0934 0 0
1:35 pm 13:35 Mostly Cloudy 14 -10 6 -14.6 69 69 NNE 5 7 30.62 1037 10 16.0934 0 0
1:55 pm 13:55 Cloudy 14 -10 6 -14.6 69 69 Calm 30.61 1037 10 16.0934 0 0
2:15 pm 14:15 Cloudy 14 -10 6 -14.6 69 69 Calm 30.61 1037 10 16.0934 0 0
2:35 pm 14:35 Cloudy 15 -9.7 6 -14.3 69 69 N 5 7 30.61 1037 10 16.0934 0 0
2:55 pm 14:55 Cloudy 15 -9.2 7 -13.8 70 70 NNE 3 6 30.59 1036 7 11.26538 0 0
3:15 pm 15:15 Partly Cloudy 15 -9.4 7 -13.9 70 70 NNE 5 7 30.6 1036 10 16.0934 0 0
3:35 pm 15:35 Mostly Cloudy 15 -9.3 8 -13.4 72 72 NE 5 7 30.59 1036 10 16.0934 0 0
3:55 pm 15:55 Cloudy 15 -9.3 8 -13.5 72 72 ENE 6 9 30.58 1035 10 16.0934 0 0
4:15 pm 16:15 Cloudy 15 -9.3 8 -13.6 71 71 ENE 5 7 30.58 1035 10 16.0934 0 0
4:35 pm 16:35 Mostly Cloudy 15 -9.6 7 -13.7 72 72 E 6 9 30.58 1036 10 16.0934 0 0
4:55 pm 16:55 Mostly Cloudy 15 -9.5 8 -13.6 72 72 ESE 6 9 30.57 1035 10 16.0934 0 0
5:15 pm 17:15 Cloudy with Light Snow 15 -9.5 8 -13.5 73 73 ESE 7 11 30.58 1035 5 8.0467 0 0
5:35 pm 17:35 Cloudy with Light Snow 14 -10 9 -13 79 79 E 6 9 30.58 1036 2 3.21868 0 0
6:15 pm 18:15 Cloudy with Haze 14 -10 9 -12.8 80 80 ESE 7 11 30.59 1036 4 6.43736 0 0
6:35 pm 18:35 Cloudy with Light Snow 13 -10.3 9 -13 81 81 ESE 5 7 30.61 1036 5 8.0467 0 0
6:55 pm 18:55 Cloudy 14 -10 10 -12.5 82 82 E 5 7 30.6 1036 10 16.0934 0 0
7:15 pm 19:15 Cloudy 14 -10 10 -12.4 83 83 ESE 6 9 30.6 1036 10 16.0934 0 0
7:35 pm 19:35 Cloudy with Light Snow 14 -10 10 -12.3 83 83 E 6 9 30.6 1036 10 16.0934 0 0
7:55 pm 19:55 Cloudy with Light Snow 14 -10 10 -12.5 82 82 ESE 7 11 30.6 1036 10 16.0934 0 0
8:15 pm 20:15 Cloudy with Light Snow 14 -10 10 -12.5 82 82 ESE 5 7 30.61 1037 10 16.0934 0 0
8:35 pm 20:35 Cloudy with Light Snow 14 -10 10 -12.5 82 82 ESE 5 7 30.61 1037 7 11.26538 0 0
8:55 pm 20:55 Cloudy with Light Snow 14 -10 10 -12.5 82 82 SE 5 7 30.61 1037 5 8.0467 0 0
9:15 pm 21:15 Cloudy with Light Snow 14 -10 10 -12.5 82 82 SE 5 7 30.61 1037 7 11.26538 0 0
9:35 pm 21:35 Cloudy with Light Snow 14 -10 10 -12.4 83 83 SE 5 7 30.61 1037 4 6.43736 0 0
9:55 pm 21:55 Cloudy with Light Snow 14 -10 10 -12.5 82 82 SE 3 6 30.61 1037 3 4.82802 0 0
10:15 pm 22:15 Cloudy with Light Snow 14 -10 10 -12.3 83 83 Calm 30.61 1037 2.5 4.02335 0 0
10:35 pm 22:35 Cloudy with Light Snow 13 -10.3 10 -12.5 84 84 Calm 30.62 1037 3 4.82802 0 0
10:55 pm 22:55 Cloudy with Light Snow 13 -10.6 9 -12.7 85 85 ESE 3 6 30.61 1037 2.5 4.02335 0 0
11:15 pm 23:15 Mostly Cloudy with Scattered Snow Showers 12 -11 8 -13.1 85 85 SE 3 6 30.61 1037 5 8.0467 0 0
11:35 pm 23:35 Mostly Cloudy with Scattered Snow Showers 12 -11.2 8 -13.3 85 85 ESE 3 6 30.61 1036 5 8.0467 0 0
11:55 pm 23:55 Cloudy with Light Snow 13 -10.8 9 -12.7 86 86 ESE 5 7 30.6 1036 5 8.0467 0 0

Powered by AerisWeather